Starlink 32417

operational
NORAD ID: 61673 Int'l Des: 2024-193 Owner: SPXS Country: US Constellation: starlink
LEOCIRCULAR

关于 Starlink 32417

正在加载描述...

实时位置

正在加载3D地球...

即将过境

高度历史

Altitude vs Time

uPlot chart will show altitude changes over time

两行轨道根数

1 61673U 24193N 25259.06858823 -.00003785 00000-0 -11577-3 0 9994
2 61673 53.1594 181.9408 0001309 58.6917 301.4212 15.30186478 49797
Epoch: Sep 16, 2025 • Age: 12 hours

当前状态

高度 479.8 km
速度 7.63 km/s
星下点 -14.36°S, 172.7°E
发射日期 Oct 26, 2024
运行时间 0.8 years
类型 internet

技术详情

分类 Payload
质量 730.00 kg
干质量 700.00 kg
总质量 730.00 kg
长度 0.30 m
直径 4.10 m
跨度 29.00 m
形状 Box + pan
制造商 SPXS
平台类型 Starlink V2M
阶段状态 In Orbit
所有者/国家 SPXS/US

大型星座

Loading constellations...